Welcome to the New NWS' Forecast!
Most changes are behind the scenes, but click here for differences you might notice.

Regional Weather Roundup (RWR)

Issued by Gray - Portland, ME (GYX)

                            
000
ASUS41 KGYX 221205
RWRGYX
WEATHER ROUNDUP FOR MAINE AND NEW HAMPSHIRE
NATIONAL WEATHER SERVICE GRAY ME
800 AM EDT MON OCT 22 2018

MEZ002-005-006-010-012-015-018-020-021-024-026-027-029-221300-
MAINE
  
CITY           SKY/WX    TMP DP  RH WIND       PRES   REMARKS
PORTLAND       FAIR      32  23  69 SW6       30.13R                  
6HR MIN TEMP:  29; 6HR MAX TEMP:  32;                                

SANFORD        FAIR      31  22  69 W9        30.14R                  
BAR HARBOR     FAIR      34  22  61 VRB3      30.07R                  
WISCASSET      FAIR      36  22  56 VRB3      30.12R                  
6HR MIN TEMP:  28; 6HR MAX TEMP:  36;                                

ROCKLAND       FAIR      31  25  78 SW5       30.10R                  
FRYEBURG       FAIR      35  16  45 W9        30.10R                  
6HR MIN TEMP:  34; 6HR MAX TEMP:  35;                                

LEWISTONAUBURN FAIR      35  19  52 W7        30.11R                  
AUGUSTA        FAIR      35  20  54 SW6       30.09R                  
6HR MIN TEMP:  34; 6HR MAX TEMP:  36;                                

WATERVILLE     FAIR      34  19  54 W5        30.05R                  
BANGOR         FAIR      32  20  61 SW3       30.06R                  
6HR MIN TEMP:  26; 6HR MAX TEMP:  32;                                

GREENVILLE       N/A     28  18  66 NW10G21   29.95R WCI  19          
6HR MIN TEMP:  28; 6HR MAX TEMP:  29;                                

MILLINOCKET    FAIR      33  17  51 NW15G21   30.00R                  
6HR MIN TEMP:  31; 6HR MAX TEMP:  33;                                

HOULTON        FAIR      29  21  72 W9        29.94R                  
6HR MIN TEMP:  26; 6HR MAX TEMP:  29;                                

PRESQUE ISLE   FAIR      29  22  75 W10       29.92R WCI  20          
6HR MIN TEMP:  23; 6HR MAX TEMP:  29;                                

FRENCHVILLE    CLOUDY    28  15  58 NW8       29.86R                  
6HR MIN TEMP:  24; 6HR MAX TEMP:  28;                                

CARIBOU        FAIR      27  19  72 W6        29.89R                  
6HR MIN TEMP:  24; 6HR MAX TEMP:  28;                                

$$

NHZ002-005-008-009-011-012-014-221300-
NEW HAMPSHIRE
  
CITY           SKY/WX    TMP DP  RH WIND       PRES   REMARKS
PORTSMOUTH     PTCLDY    33  20  60 W7        30.14R                  
ROCHESTER      FAIR      31  20  63 VRB3      30.13R                  
6HR MIN TEMP:  30; 6HR MAX TEMP:  34;                                

NASHUA         FAIR      28  26  92 CALM      30.18R                  
MANCHESTER     FAIR      29  24  82 S3        30.15R                  
6HR MIN TEMP:  29; 6HR MAX TEMP:  34;                                

CONCORD        FAIR      26  22  84 CALM      30.15R                  
6HR MIN TEMP:  23; 6HR MAX TEMP:  34;                                

LACONIA        MOCLDY    31  21  66 SW6       30.13R                  
PLYMOUTH       CLOUDY    34  19  55 CALM      30.11R                  
BERLIN         MOCLDY    31  18  58 W9        30.05R                  
6HR MIN TEMP:  30; 6HR MAX TEMP:  33;                                

WHITEFIELD     MOCLDY    31  18  58 W7        30.09R                  
6HR MIN TEMP:  31; 6HR MAX TEMP:  32; 6HR PCP: TRACE;                

JAFFREY        FAIR      30  22  72 W5        30.13R                  
6HR MIN TEMP:  28; 6HR MAX TEMP:  33;                                

KEENE          FAIR      22  21  96 SE3       30.17R                  
LEBANON        FAIR      24  18  77 S5        30.13R                  
6HR MIN TEMP:  23; 6HR MAX TEMP:  29;                                

MT WASHINGTON  SNOW       7   7 100 W54G68      N/A  VSB 0   WCI -22  
6HR MIN TEMP:   6; 6HR MAX TEMP:   8; 6HR PCP:  0.04;                

$$

VTZ005-007-008-221300-
VERMONT
  
CITY           SKY/WX    TMP DP  RH WIND       PRES   REMARKS
ST JOHNSBURY     N/A     31  20  63 MISG      30.10R                  
MONTPELIER     CLOUDY    31  21  66 NW3       30.13R                  
BURLINGTON     MOCLDY    35  20  54 NW3       30.13R                  
$$

MAZ007-012-024-CTZ003-RIZ002-NYZ038-NYZ072-221300-
SOUTHERN NEW ENGLAND AND NY
  
CITY           SKY/WX    TMP DP  RH WIND       PRES   REMARKS
BOSTON         FAIR      38  24  57 SW7       30.19R                  
WORCESTER      FAIR      29  25  85 SW6       30.15R                  
NANTUCKET      FAIR      38  23  55 W5        30.21R                  
PROVIDENCE     FAIR      32  27  81 W3        30.21R                  
HARTFORD       FAIR      31  27  85 CALM      30.20R                  
ALBANY         CLOUDY    39  32  76 SW5       30.19R                  
NEW YORK CITY  FAIR      58  29  33 SW8       30.23R                  
$$

ANZ081-ANZ082-ANZ150-NHZ014-MEZ023>029-221300-
COASTAL MARINE OBSERVATIONS
  
STATION/POSITION TIME  TEMP    WIND        PRES    WAVE
                       AIR SEA DIR/SP/G            HT/PER
                 (UTC) (F)     (DEG/KT/KT) (MB)    (FT/S)
MOUNT DESERT ROC 1200   39     280/ 18/ 21 1018.6R
MATINICUS ROCK   1100   39     310/ 21/ 23 1017.6R
ISLE OF SHOALS   1100   37     260/ 17/ 20 1019.8R
JEFFREYS LEDGE   1106      54                N/A     4/ 5
$$

.............KEY..............
   WCI - WIND CHILL
   TC  - TEMPERATURE IN CELSIUS
   VSB - VISIBILITY IN MILES
   HX  - HEAT INDEX
   FAIR- INDICATES FEW OR NO CLOUDS BELOW 12,000 FT, WITH NO 
         SIGNIFICANT WEATHER AND/OR OBSTRUCTIONS TO VISIBILITY.